Stations météo

réclame
Mon MeteoGroup
Cannes, France (7684): Température de l'air & dewpoint: 17.04.2018 03:00:00 - 23.04.2018 03:00:00 (CEST)Cannes, France (7684): Température de l'air 5cm: 17.04.2018 03:00:00 - 23.04.2018 03:00:00 (CEST)Cannes, France (7684): Vitesse du vent & gusts: 17.04.2018 03:00:00 - 23.04.2018 03:00:00 (CEST)Cannes, France (7684): Direction du vent: 17.04.2018 03:00:00 - 23.04.2018 03:00:00 (CEST)Cannes, France (7684): reduced air pressure: 17.04.2018 03:00:00 - 23.04.2018 03:00:00 (CEST)Cannes, France (7684): visibility: 17.04.2018 03:00:00 - 23.04.2018 03:00:00 (CEST)Cannes, France (7684): Quantités de précipitations: 17.04.2018 03:00:00 - 23.04.2018 03:00:00 (CEST)
Date & Time tt [°C] td [°C] tt 5cm [°C] ff [km/h] ff [knt] fx [km/h] fx [knt] dd ppp [hPa] vv [km] rr [mm]
23.04.2018 03:00:00 12,9 9,7 12,1 5 3 11 6 N 1018,1 35 0,0
23.04.2018 02:00:00 12,7 9,9 12,0 5 3 9 5 N 1018,4 32 0,0
23.04.2018 01:00:00 13,5 10,3 12,2 6 4 10 5 N 1018,7 35 0,0
23.04.2018 00:00:00 13,9 10,7 13,0 5 3 8 4 N 1018,6 34 0,0
22.04.2018 23:00:00 14,5 11,3 13,2 5 3 10 5 N 1018,4 28 0,0
22.04.2018 22:00:00 15,4 11,6 13,5 5 3 8 5 N 1018,2 28 0,0
22.04.2018 21:00:00 16,8 13,1 13,5 0 0 4 2 N 1017,6 31 0,0
22.04.2018 20:00:00 17,3 13,0 16,2 4 2 10 5 S 1017,2 36 0,0
22.04.2018 19:00:00 19,4 13,6 18,9 8 4 13 7 SSE 1017,0 44 0,0
22.04.2018 18:00:00 21,2 10,7 20,2 8 5 19 11 S 1017,1 60 0,0
22.04.2018 17:00:00 22,2 10,3 21,6 12 6 19 11 S 1017,2 18 0,0
22.04.2018 16:00:00 23,3 8,6 23,5 9 5 16 9 S 1017,6 17 0,0
22.04.2018 15:00:00 22,0 12,8 25,1 10 5 19 11 S 1018,2 13 0,0
22.04.2018 14:00:00 21,3 14,2 24,9 13 7 22 12 S 1018,3 20 0,0
22.04.2018 13:00:00 21,7 12,8 22,4 11 6 18 10 SSE 1018,3 60 0,0
22.04.2018 12:00:00 21,4 10,5 19,8 10 5 18 10 S 1018,5 60 0,0
22.04.2018 11:00:00 21,5 11,5 17,9 7 4 12 6 SSW 1018,5 60 0,0
22.04.2018 10:00:00 20,8 10,0 14,4 8 4 11 6 S 1018,2 53 0,0
22.04.2018 09:00:00 18,2 8,2 11,6 3 2 12 7 N 1017,8 56 0,0
22.04.2018 08:00:00 13,9 7,2 10,4 8 5 15 8 N 1017,7 57 0,0
22.04.2018 07:00:00 11,6 6,7 10,3 8 4 12 6 NNE 1017,5 60 0,0
22.04.2018 06:00:00 11,6 6,9 10,7 6 3 16 9 N 1017,0 60 0,0
22.04.2018 05:00:00 12,1 7,2 10,9 9 5 14 8 N 1017,2 60 0,0
22.04.2018 04:00:00 12,6 7,5 11,3 8 4 15 8 N 1017,4 60 0,0
22.04.2018 03:00:00 13,4 7,6 11,8 7 4 13 7 N 1017,5 60 0,0
22.04.2018 02:00:00 13,9 7,9 12,1 7 4 14 7 N 1017,9 60 0,0
22.04.2018 01:00:00 14,5 8,4 12,3 9 5 14 8 N 1018,1 56 0,0
22.04.2018 00:00:00 15,3 8,8 12,8 8 5 13 7 N 1018,3 57 0,0
21.04.2018 23:00:00 15,7 9,6 13,2 6 3 14 7 N 1018,4 53 0,0
21.04.2018 22:00:00 16,5 10,6 13,3 8 5 12 7 N 1018,4 33 0,0
21.04.2018 21:00:00 18,1 11,4 14,1 0 0 5 3 N 1018,0 33 0,0
21.04.2018 20:00:00 20,3 11,0 16,8 0 0 9 5 N 1017,7 56 0,0
21.04.2018 19:00:00 21,9 11,3 19,3 7 4 17 9 SSE 1017,9 54 0,0
21.04.2018 18:00:00 23,1 10,2 20,8 9 5 18 10 SSE 1018,3 58 0,0
21.04.2018 17:00:00 23,8 9,4 22,3 10 5 17 9 SE 1018,4 53 0,0
21.04.2018 16:00:00 24,6 8,5 24,0 9 5 14 8 S 1018,9 20 0,0
21.04.2018 15:00:00 24,7 8,6 25,3 10 5 15 8 S 1019,5 60 0,0
21.04.2018 14:00:00 24,6 8,9 25,0 8 4 15 8 S 1019,7 60 0,0
21.04.2018 13:00:00 24,1 6,8 23,3 8 5 13 7 S 1020,0 60 0,0
21.04.2018 12:00:00 23,4 10,4 21,0 7 4 17 9 SSE 1020,6 60 0,0
21.04.2018 11:00:00 22,3 9,8 17,4 10 5 14 8 SSE 1020,5 20 0,0
21.04.2018 10:00:00 22,5 8,6 13,9 5 3 13 7 N 1020,0 20 0,0
21.04.2018 09:00:00 18,0 7,7 11,4 6 3 16 9 N 1020,1 50 0,0
21.04.2018 08:00:00 13,7 6,8 10,4 8 5 16 9 N 1020,2 44 0,0
21.04.2018 07:00:00 11,6 6,3 10,3 9 5 14 7 N 1019,9 49 0,0
21.04.2018 06:00:00 12,2 6,5 10,6 9 5 15 8 N 1019,6 59 0,0
21.04.2018 05:00:00 12,6 6,6 11,0 8 4 14 8 N 1019,8 60 0,0
21.04.2018 04:00:00 13,0 7,0 11,2 9 5 16 9 N 1020,0 60 0,0
21.04.2018 03:00:00 13,7 7,2 11,6 8 4 14 8 N 1020,1 60 0,0
21.04.2018 02:00:00 14,2 7,3 11,8 8 5 13 7 N 1020,4 60 0,0
21.04.2018 01:00:00 14,5 7,5 12,2 8 4 13 7 N 1020,5 60 0,0
21.04.2018 00:00:00 15,2 8,0 12,4 7 4 12 7 N 1020,7 60 0,0
20.04.2018 23:00:00 16,4 8,1 12,5 6 4 12 7 N 1020,7 52 0,0
20.04.2018 22:00:00 17,0 8,7 12,7 4 2 8 4 N 1020,7 25 0,0
20.04.2018 21:00:00 18,8 8,2 14,0 0 0 10 5 N 1020,6 60 0,0
20.04.2018 20:00:00 21,2 8,5 16,1 4 2 8 5 S 1020,2 60 0,0
20.04.2018 19:00:00 23,8 7,8 19,2 6 3 10 5 S 1020,4 59 0,0
20.04.2018 18:00:00 24,9 7,1 20,9 8 4 13 7 S 1021,0 55 0,0
20.04.2018 17:00:00 25,2 7,8 22,5 8 5 18 10 S 1021,4 59 0,0
20.04.2018 16:00:00 25,3 7,9 24,1 10 6 21 12 SSE 1022,0 46 0,0
20.04.2018 15:00:00 25,4 8,4 25,6 11 6 21 11 S 1022,8 19 0,0
20.04.2018 14:00:00 25,5 7,1 24,1 8 4 16 9 SE 1023,3 20 0,0
20.04.2018 13:00:00 25,2 7,8 23,4 7 4 20 11 S 1023,8 60 0,0
20.04.2018 12:00:00 25,5 6,2 20,8 8 4 16 9 SE 1023,9 60 0,0
20.04.2018 11:00:00 24,9 8,0 17,2 6 4 11 6 S 1023,8 58 0,0
20.04.2018 10:00:00 21,9 8,7 13,6 4 2 13 7 N 1023,6 20 0,0
20.04.2018 09:00:00 17,2 8,1 11,1 6 4 16 9 NNW 1023,7 53 0,0
20.04.2018 08:00:00 13,6 7,1 10,1 8 4 17 9 N 1023,7 19 0,0
20.04.2018 07:00:00 11,3 6,4 10,1 8 5 15 8 N 1023,7 54 0,0
20.04.2018 06:00:00 11,5 6,8 10,3 9 5 17 9 N 1023,4 55 0,0
20.04.2018 05:00:00 12,0 6,9 10,4 9 5 15 8 N 1023,4 54 0,0
20.04.2018 04:00:00 12,2 7,1 10,7 6 3 16 9 N 1023,7 51 0,0
20.04.2018 03:00:00 12,6 7,3 10,9 8 4 16 9 N 1023,9 53 0,0
20.04.2018 02:00:00 12,9 7,3 11,0 8 5 14 8 N 1024,3 54 0,0
20.04.2018 01:00:00 13,1 7,5 11,1 8 5 14 7 N 1024,4 53 0,0
20.04.2018 00:00:00 13,7 7,5 11,4 4 2 12 7 N 1024,7 56 0,0
19.04.2018 23:00:00 14,2 7,9 12,2 5 3 10 6 N 1024,8 51 0,0
19.04.2018 22:00:00 15,2 8,2 12,1 4 2 9 5 N 1025,1 49 0,0
19.04.2018 21:00:00 17,0 8,2 13,3 5 3 8 4 N 1024,7 54 0,0
19.04.2018 20:00:00 19,1 5,9 15,1 2 1 9 5 SSW 1024,5 19 0,0
19.04.2018 19:00:00 21,0 7,6 18,1 7 4 12 7 SSE 1024,7 59 0,0
19.04.2018 18:00:00 21,8 6,8 19,7 11 6 16 9 S 1024,8 60 0,0
19.04.2018 17:00:00 22,7 6,9 21,0 9 5 17 9 S 1025,0 53 0,0
19.04.2018 16:00:00 23,3 5,7 22,7 8 4 16 9 ESE 1025,6 50 0,0
19.04.2018 15:00:00 22,5 8,9 23,7 11 6 23 13 SSW 1026,2 20 0,0
19.04.2018 14:00:00 22,9 9,7 23,7 11 6 27 15 SSE 1026,4 60 0,0
19.04.2018 13:00:00 22,5 8,6 21,3 11 6 19 10 S 1026,8 60 0,0
19.04.2018 12:00:00 22,9 7,4 20,2 5 3 16 9 S 1027,1 20 0,0
19.04.2018 11:00:00 22,6 5,9 16,8 7 4 15 8 S 1027,3 60 0,0
19.04.2018 10:00:00 21,3 9,2 13,5 4 2 11 6 NNW 1026,8 54 0,0
19.04.2018 09:00:00 16,8 8,0 11,0 8 4 17 9 N 1026,5 60 0,0
19.04.2018 08:00:00 13,0 7,4 10,0 7 4 13 7 N 1026,3 20 0,0
19.04.2018 07:00:00 11,1 7,0 9,9 7 4 14 8 N 1026,1 59 0,0
19.04.2018 06:00:00 11,4 7,3 10,4 8 4 19 10 N 1026,2 60 0,0
19.04.2018 05:00:00 11,9 7,6 10,5 10 5 16 9 N 1026,5 60 0,0
19.04.2018 04:00:00 12,4 7,7 10,9 6 3 17 9 N 1026,7 60 0,0
19.04.2018 03:00:00 12,8 8,1 11,1 10 5 16 9 N 1026,8 60 0,0
19.04.2018 02:00:00 13,3 8,1 11,4 10 5 16 9 N 1027,2 60 0,0
19.04.2018 01:00:00 13,8 8,4 11,5 8 4 13 7 N 1027,3 51 0,0
19.04.2018 00:00:00 14,1 8,7 12,1 5 3 12 7 N 1027,0 60 0,0
18.04.2018 23:00:00 14,7 9,1 12,4 6 3 13 7 N 1027,0 59 0,0
18.04.2018 22:00:00 16,2 9,1 13,0 5 3 8 4 N 1026,7 54 0,0
18.04.2018 21:00:00 18,0 9,1 13,5 3 2 7 4 NW 1026,1 60 0,0
18.04.2018 20:00:00 18,7 8,9 16,5 7 4 10 5 SSW 1025,7 60 0,0
18.04.2018 19:00:00 22,5 8,9 18,9 7 4 12 7 S 1025,4 59 0,0
18.04.2018 18:00:00 23,2 9,6 20,5 6 4 17 9 SSW 1025,3 54 0,0
18.04.2018 17:00:00 23,3 8,6 21,5 12 6 22 12 S 1025,6 60 0,0
18.04.2018 16:00:00 23,9 7,9 23,4 8 4 22 12 SE 1025,8 60 0,0
18.04.2018 15:00:00 24,4 9,9 24,5 12 6 28 15 SSE 1026,3 60 0,0
18.04.2018 14:00:00 23,8 8,2 24,5 11 6 22 12 SE 1026,9 60 0,0
18.04.2018 13:00:00 24,3 10,2 22,9 6 3 19 10 SSE 1027,0 20 0,0
18.04.2018 12:00:00 23,9 7,5 21,2 10 6 20 11 SE 1027,1 60 0,0
18.04.2018 11:00:00 24,1 9,3 17,3 7 4 14 8 SE 1027,0 20 0,0
18.04.2018 10:00:00 19,8 11,3 13,6 6 3 14 7 N 1026,8 16 0,0
18.04.2018 09:00:00 15,6 10,1 11,5 6 3 16 9 N 1026,6 18 0,0
18.04.2018 08:00:00 13,2 9,1 10,9 10 5 17 9 N 1026,4 20 0,0
18.04.2018 07:00:00 12,2 8,8 10,7 10 5 16 9 N 1025,8 36 0,0
18.04.2018 06:00:00 12,1 8,9 10,8 8 5 14 8 NNE 1025,3 36 0,0
18.04.2018 05:00:00 12,2 8,8 11,0 8 4 15 8 N 1025,0 20 0,0
18.04.2018 04:00:00 12,4 9,4 11,0 10 5 17 9 N 1024,6 32 0,0
18.04.2018 03:00:00 12,9 9,5 11,2 7 4 11 6 N 1024,5 37 0,0
18.04.2018 02:00:00 13,0 10,2 11,5 6 3 13 7 N 1024,6 20 0,0
18.04.2018 01:00:00 13,2 11,1 11,2 6 3 12 7 NNE 1024,4 19 0,0
18.04.2018 00:00:00 14,1 12,5 11,6 0 0 3 2 N 1024,2 12 0,0
17.04.2018 23:00:00 14,7 12,9 12,7 0 0 4 2 N 1024,0 20 0,0
17.04.2018 22:00:00 15,7 13,4 13,6 0 0 5 3 N 1023,4 31 0,0
17.04.2018 21:00:00 15,3 12,6 13,9 5 3 7 4 S 1022,6 31 0,0
17.04.2018 20:00:00 15,0 12,9 14,2 3 1 8 5 SSW 1021,8 41 0,0
17.04.2018 19:00:00 16,2 13,1 17,0 5 3 12 7 S 1021,7 36 0,0
17.04.2018 18:00:00 17,1 13,2 19,0 8 4 13 7 SSE 1021,5 20 0,0
17.04.2018 17:00:00 17,9 13,4 20,9 10 5 14 8 SSE 1021,3 20 0,0
17.04.2018 16:00:00 18,4 13,9 22,7 11 6 15 8 S 1021,3 42 0,0
17.04.2018 15:00:00 18,2 13,7 23,8 9 5 18 10 S 1021,6 19 0,0
17.04.2018 14:00:00 17,4 13,3 23,3 13 7 22 12 S 1021,4 20 0,0
17.04.2018 13:00:00 17,9 13,2 21,9 12 6 19 10 SSE 1021,5 18 0,0
17.04.2018 12:00:00 18,3 13,2 19,9 8 5 18 10 SSE 1021,3 54 0,0
17.04.2018 11:00:00 18,3 12,7 16,8 10 5 17 9 SSE 1021,1 20 0,0
17.04.2018 10:00:00 19,1 9,8 13,5 2 1 7 4 WSW 1020,6 42 0,0
17.04.2018 09:00:00 15,2 10,6 10,6 5 3 11 6 N 1020,1 19 0,0
17.04.2018 08:00:00 11,2 9,1 9,3 8 4 14 8 N 1019,4 20 0,0
17.04.2018 07:00:00 9,5 8,1 9,3 8 5 14 8 N 1018,6 38 0,0
17.04.2018 06:00:00 9,7 8,3 9,4 6 3 13 7 N 1017,7 39 0,0
17.04.2018 05:00:00 9,9 8,2 9,1 6 3 10 6 N 1017,2 40 0,0
17.04.2018 04:00:00 10,9 8,5 9,8 5 3 13 7 N 1016,7 47 0,0
17.04.2018 03:00:00 10,9 8,8 9,6 5 3 9 5 N 1016,1 42 0,0

tt = Température de l'air
td = dewpoint
tt 5cm = Température de l'air 5cm
ff = Vitesse du vent
fx = gusts
dd = Direction du vent
ppp = reduced air pressure
vv = visibility
rr = Quantités de précipitations

stations d'obs. à proximité